﻿_id,日時,平均風速(m/s),平均風向,最大瞬間風速(m/s),最大風速時風向,気温(℃),湿度(%),10分間移動積算雨量(mm),1時間移動積算雨量(mm),日雨量(mm),累計雨量(mm)
1,2021-12-27T00:00:00,0,静穏,0,南東,-0.6,94.6,0.5,1,7.5,8
2,2021-12-27T00:01:00,0,静穏,0,南東,-0.7,94.5,0.5,1,0,8
3,2021-12-27T00:02:00,0,静穏,0,南東,-0.6,94.4,0.5,1,0,8
4,2021-12-27T00:03:00,0,静穏,0,東北東,-0.6,94.5,0.5,1,0,8
5,2021-12-27T00:04:00,0,静穏,0,東北東,-0.6,94.7,0.5,1,0,8
6,2021-12-27T00:05:00,0,静穏,0,東北東,-0.6,94.7,0.5,1,0,8
7,2021-12-27T00:06:00,0,静穏,0,東北東,-0.7,94.4,0.5,1,0,8
8,2021-12-27T00:07:00,0,静穏,0,東北東,-0.7,94.3,0.5,1,0,8
9,2021-12-27T00:08:00,0,静穏,0,東北東,-0.6,94.4,0.5,1,0,8
10,2021-12-27T00:09:00,0,静穏,0,東北東,-0.5,94.6,0,1,0,8
11,2021-12-27T00:10:00,0,静穏,0,東北東,-0.5,94.7,0,1,0,8
12,2021-12-27T00:11:00,0,静穏,0,東北東,-0.5,94.8,0.5,1.5,0.5,8.5
13,2021-12-27T00:12:00,0,静穏,0,東北東,-0.7,94.6,0.5,1.5,0.5,8.5
14,2021-12-27T00:13:00,0,静穏,0,東南東,-0.7,94.2,0.5,1.5,0.5,8.5
15,2021-12-27T00:14:00,0,静穏,0,東南東,-0.7,94.2,0.5,1.5,0.5,8.5
16,2021-12-27T00:15:00,0,静穏,0,東南東,-0.7,94.3,0.5,1.5,0.5,8.5
17,2021-12-27T00:16:00,0,静穏,0,東南東,-0.7,94.3,0.5,1.5,0.5,8.5
18,2021-12-27T00:17:00,0,静穏,0,東南東,-0.7,94.4,0.5,1.5,0.5,8.5
19,2021-12-27T00:18:00,0,静穏,0,東南東,-0.8,94.2,0.5,1.5,0.5,8.5
20,2021-12-27T00:19:00,0,静穏,0,東南東,-0.8,94.1,0.5,1.5,0.5,8.5
21,2021-12-27T00:20:00,0,静穏,0,東南東,-0.8,94.2,0.5,1.5,0.5,8.5
22,2021-12-27T00:21:00,0,静穏,0,東南東,-0.8,94.2,0,1.5,0.5,8.5
23,2021-12-27T00:22:00,0,静穏,0.1,南,-0.9,94.2,0,1.5,0.5,8.5
24,2021-12-27T00:23:00,0,静穏,0.1,南,-0.9,94,0,1.5,0.5,8.5
25,2021-12-27T00:24:00,0,静穏,0.1,南,-1,93.9,0,1.5,0.5,8.5
26,2021-12-27T00:25:00,0,静穏,0.1,南,-0.9,93.9,0,1.5,0.5,8.5
27,2021-12-27T00:26:00,0,静穏,0.1,南,-1,94.1,0,1.5,0.5,8.5
28,2021-12-27T00:27:00,0,静穏,0.1,南,-1,94.2,0,1.5,0.5,8.5
29,2021-12-27T00:28:00,0,静穏,0.1,南,-1,94,0,1.5,0.5,8.5
30,2021-12-27T00:29:00,0,静穏,0.1,南,-1,94,0,1.5,0.5,8.5
31,2021-12-27T00:30:00,0,静穏,0.1,南,-1,94.1,0,1.5,0.5,8.5
32,2021-12-27T00:31:00,0,静穏,0.1,南,-1,94.2,0.5,2,1,9
33,2021-12-27T00:32:00,0,静穏,0,南南東,-1.1,94.1,0.5,2,1,9
34,2021-12-27T00:33:00,0,静穏,0,南南東,-1.1,94,0.5,2,1,9
35,2021-12-27T00:34:00,0,静穏,0,南南東,-1,94.1,0.5,2,1,9
36,2021-12-27T00:35:00,0,静穏,0,南南東,-1,94.3,0.5,2,1,9
37,2021-12-27T00:36:00,0,静穏,0,南南東,-1,94.3,0.5,2,1,9
38,2021-12-27T00:37:00,0,静穏,0,南南東,-0.9,94.3,0.5,2,1,9
39,2021-12-27T00:38:00,0,静穏,0,南南東,-0.9,94.5,0.5,1.5,1,9
40,2021-12-27T00:39:00,0,静穏,0,南南東,-0.9,94.6,0.5,1.5,1,9
41,2021-12-27T00:40:00,0,静穏,0,南南東,-0.9,94.4,0.5,1.5,1,9
42,2021-12-27T00:41:00,0,静穏,0,南南東,-1,94.3,0,1.5,1,9
43,2021-12-27T00:42:00,0,静穏,0,南西,-1,94.1,0,1.5,1,9
44,2021-12-27T00:43:00,0,静穏,0,南西,-1.1,94,0,1.5,1,9
45,2021-12-27T00:44:00,0,静穏,0,南西,-1.1,93.7,0,1.5,1,9
46,2021-12-27T00:45:00,0,静穏,0,南西,-1.1,94,0,1.5,1,9
47,2021-12-27T00:46:00,0,静穏,0,南西,-1,93.7,0,1.5,1,9
48,2021-12-27T00:47:00,0,静穏,0,南西,-1.3,93.7,0.5,2,1.5,9.5
49,2021-12-27T00:48:00,0,静穏,0,南西,-1.5,92.8,0.5,2,1.5,9.5
50,2021-12-27T00:49:00,0,静穏,0,南西,-1.6,92.5,0.5,2,1.5,9.5
51,2021-12-27T00:50:00,0,静穏,0,南西,-1.5,92.9,0.5,2,1.5,9.5
52,2021-12-27T00:51:00,0,静穏,0,南西,-1.7,92.6,0.5,2,1.5,9.5
53,2021-12-27T00:52:00,0,静穏,0,南西,-1.6,92.5,0.5,2,1.5,9.5
54,2021-12-27T00:53:00,0,静穏,0,南西,-1.4,93.3,0.5,2,1.5,9.5
55,2021-12-27T00:54:00,0,静穏,0,南西,-1.3,93.9,0.5,2,1.5,9.5
56,2021-12-27T00:55:00,0,静穏,0,南西,-1.2,94,0.5,2,1.5,9.5
57,2021-12-27T00:56:00,0,静穏,0,南西,-1.2,94,0.5,2,1.5,9.5
58,2021-12-27T00:57:00,0,静穏,0,南西,-1.5,93.5,0,2,1.5,9.5
59,2021-12-27T00:58:00,0,静穏,0,南西,-1.6,92.7,0,2,1.5,9.5
60,2021-12-27T00:59:00,0,静穏,0,南西,-1.5,92.5,0,1.5,1.5,9.5
61,2021-12-27T01:00:00,0,静穏,0,南西,-1.3,92.9,0,1.5,1.5,9.5
62,2021-12-27T01:01:00,0,静穏,0,南西,-1.4,93.1,0,1.5,1.5,9.5
63,2021-12-27T01:02:00,0,静穏,0,北西,-1.5,92.7,0,1.5,1.5,9.5
64,2021-12-27T01:03:00,0,静穏,0,北西,-1.5,92.4,0,1.5,1.5,9.5
65,2021-12-27T01:04:00,0,静穏,0,北西,-1.4,92.5,0,1.5,1.5,9.5
66,2021-12-27T01:05:00,0,静穏,0,北西,-1.4,92.5,0,1.5,1.5,9.5
67,2021-12-27T01:06:00,0,静穏,0,北西,-1.5,92.4,0,1.5,1.5,9.5
68,2021-12-27T01:07:00,0,静穏,0,北西,-1.6,91.8,0,1.5,1.5,9.5
69,2021-12-27T01:08:00,0,静穏,0,北西,-1.7,91.6,0,1.5,1.5,9.5
70,2021-12-27T01:09:00,0,静穏,0,北西,-1.8,91.2,0,1.5,1.5,9.5
71,2021-12-27T01:10:00,0,静穏,0,北西,-1.9,90.7,0,1.5,1.5,9.5
72,2021-12-27T01:11:00,0,静穏,0,北西,-1.9,90.7,0,1,1.5,9.5
73,2021-12-27T01:12:00,0,静穏,0,北東,-2,90.8,0,1,1.5,9.5
74,2021-12-27T01:13:00,0,静穏,0,北東,-1.8,90.9,0,1,1.5,9.5
75,2021-12-27T01:14:00,0,静穏,0,北東,-1.7,91.8,0,1,1.5,9.5
76,2021-12-27T01:15:00,0,静穏,0,北東,-1.6,91.9,0,1,1.5,9.5
77,2021-12-27T01:16:00,0,静穏,0,北東,-1.6,92.1,0,1,1.5,9.5
78,2021-12-27T01:17:00,0,静穏,0,北東,-1.6,92,0,1,1.5,9.5
79,2021-12-27T01:18:00,0,静穏,0,北東,-1.5,91.9,0,1,1.5,9.5
80,2021-12-27T01:19:00,0,静穏,0,北東,-1.5,92.1,0,1,1.5,9.5
81,2021-12-27T01:20:00,0,静穏,0,北東,-1.5,92.1,0,1,1.5,9.5
82,2021-12-27T01:21:00,0,静穏,0,北東,-1.5,91.8,0,1,1.5,9.5
83,2021-12-27T01:22:00,0,静穏,0,北東,-1.4,91.7,0,1,1.5,9.5
84,2021-12-27T01:23:00,0,静穏,0,北東,-1.3,91.9,0,1,1.5,9.5
85,2021-12-27T01:24:00,0,静穏,0,北東,-1.1,92.4,0,1,1.5,9.5
86,2021-12-27T01:25:00,0,静穏,0,北東,-1.1,92.5,0,1,1.5,9.5
87,2021-12-27T01:26:00,0,静穏,0,北東,-1.1,92.3,0,1,1.5,9.5
88,2021-12-27T01:27:00,0,静穏,0,北東,-1.3,91.7,0,1,1.5,9.5
89,2021-12-27T01:28:00,0,静穏,0,北東,-1.4,90.9,0,1,1.5,9.5
90,2021-12-27T01:29:00,0,静穏,0,北東,-1.4,90.8,0,1,1.5,9.5
91,2021-12-27T01:30:00,0,静穏,0,北東,-1.4,91.2,0,1,1.5,9.5
92,2021-12-27T01:31:00,0,静穏,0,北東,-1.3,91.3,0,0.5,1.5,9.5
93,2021-12-27T01:32:00,0,静穏,0,北東,-1.3,91.5,0,0.5,1.5,9.5
94,2021-12-27T01:33:00,0,静穏,0,北東,-1.2,91.6,0,0.5,1.5,9.5
95,2021-12-27T01:34:00,0,静穏,0,北東,-1.2,91.8,0,0.5,1.5,9.5
96,2021-12-27T01:35:00,0,静穏,0,北東,-1.2,91.7,0,0.5,1.5,9.5
97,2021-12-27T01:36:00,0,静穏,0,北東,-1.3,91.6,0,0.5,1.5,9.5
98,2021-12-27T01:37:00,0,静穏,0,北東,-1.3,91.3,0,0.5,1.5,9.5
99,2021-12-27T01:38:00,0,静穏,0,北東,-1.4,91,0,0.5,1.5,9.5
100,2021-12-27T01:39:00,0,静穏,0,北東,-1.5,90.8,0,0.5,1.5,9.5
101,2021-12-27T01:40:00,0,静穏,0,北東,-1.6,90.3,0,0.5,1.5,9.5
102,2021-12-27T01:41:00,0,静穏,0,北東,-1.6,90.7,0,0.5,1.5,9.5
103,2021-12-27T01:42:00,0,静穏,0,北,-1.6,90.7,0,0.5,1.5,9.5
104,2021-12-27T01:43:00,0,静穏,0,北,-1.7,90.9,0,0.5,1.5,9.5
105,2021-12-27T01:44:00,0,静穏,0,北,-1.7,90.5,0.5,1,2,10
106,2021-12-27T01:45:00,0,静穏,0,北,-1.9,90.5,0.5,1,2,10
107,2021-12-27T01:46:00,0,静穏,0,北,-1.9,90,0.5,1,2,10
108,2021-12-27T01:47:00,0,静穏,0,北,-1.9,90.6,0.5,0.5,2,10
109,2021-12-27T01:48:00,0,静穏,0,北,-1.9,90.8,0.5,0.5,2,10
110,2021-12-27T01:49:00,0,静穏,0,北,-2.1,90.5,0.5,0.5,2,10
111,2021-12-27T01:50:00,0,静穏,0,北,-2.2,90.1,0.5,0.5,2,10
112,2021-12-27T01:51:00,0,静穏,0,北,-2.2,90.3,0.5,0.5,2,10
113,2021-12-27T01:52:00,0,静穏,0,北北西,-2.2,90.4,0.5,0.5,2,10
114,2021-12-27T01:53:00,0,静穏,0,北北西,-2.4,90.5,0.5,0.5,2,10
115,2021-12-27T01:54:00,0,静穏,0,北北西,-2.4,90.1,0,0.5,2,10
116,2021-12-27T01:55:00,0,静穏,0,北北西,-2.2,90.9,0,0.5,2,10
117,2021-12-27T01:56:00,0,静穏,0,北北西,-2,91.7,0,0.5,2,10
118,2021-12-27T01:57:00,0,静穏,0,北北西,-2,92,0,0.5,2,10
119,2021-12-27T01:58:00,0,静穏,0,北北西,-2.3,91.7,0,0.5,2,10
120,2021-12-27T01:59:00,0,静穏,0,北北西,-2.4,90.6,0,0.5,2,10
121,2021-12-27T02:00:00,0,静穏,0,北北西,-2.2,90.9,0,0.5,2,10
122,2021-12-27T02:01:00,0,静穏,0,北北西,-2.4,91.2,0,0.5,2,10
123,2021-12-27T02:02:00,0,静穏,0,南西,-2.5,90.8,0,0.5,2,10
124,2021-12-27T02:03:00,0,静穏,0,南西,-2.5,90.9,0,0.5,2,10
125,2021-12-27T02:04:00,0,静穏,0,南西,-2.5,91.1,0,0.5,2,10
126,2021-12-27T02:05:00,0,静穏,0,南西,-2.5,91.3,0,0.5,2,10
127,2021-12-27T02:06:00,0,静穏,0,南西,-2.6,91.2,0,0.5,2,10
128,2021-12-27T02:07:00,0,静穏,0,南西,-2.4,91.3,0,0.5,2,10
129,2021-12-27T02:08:00,0,静穏,0,南西,-2.4,91.7,0,0.5,2,10
130,2021-12-27T02:09:00,0,静穏,0,南西,-2.4,91.7,0,0.5,2,10
131,2021-12-27T02:10:00,0,静穏,0,南西,-2.3,92,0,0.5,2,10
132,2021-12-27T02:11:00,0,静穏,0,南西,-2.3,92.1,0,0.5,2,10
133,2021-12-27T02:12:00,0,静穏,0,南西,-2.3,92.1,0,0.5,2,10
134,2021-12-27T02:13:00,0,静穏,0,南西,-2.4,91.9,0,0.5,2,10
135,2021-12-27T02:14:00,0,静穏,0,南西,-2.3,91.9,0,0.5,2,10
136,2021-12-27T02:15:00,0,静穏,0,南西,-2.2,92.2,0,0.5,2,10
137,2021-12-27T02:16:00,0,静穏,0,南西,-2.3,92,0,0.5,2,10
138,2021-12-27T02:17:00,0,静穏,0,南西,-2.5,91.5,0,0.5,2,10
139,2021-12-27T02:18:00,0,静穏,0,南西,-2.5,91.4,0,0.5,2,10
140,2021-12-27T02:19:00,0,静穏,0,南西,-2.5,91.2,0,0.5,2,10
141,2021-12-27T02:20:00,0,静穏,0,南西,-2.4,91.6,0,0.5,2,10
142,2021-12-27T02:21:00,0,静穏,0,南西,-2.6,91.8,0,0.5,2,10
143,2021-12-27T02:22:00,0,静穏,0,東北東,-2.7,91,0,0.5,2,10
144,2021-12-27T02:23:00,0,静穏,0,東北東,-2.7,91,0,0.5,2,10
145,2021-12-27T02:24:00,0,静穏,0,東北東,-2.7,91.1,0,0.5,2,10
146,2021-12-27T02:25:00,0,静穏,0,東北東,-2.7,91.4,0,0.5,2,10
147,2021-12-27T02:26:00,0,静穏,0,東北東,-2.6,91.7,0,0.5,2,10
148,2021-12-27T02:27:00,0,静穏,0,東北東,-2.6,92,0,0.5,2,10
149,2021-12-27T02:28:00,0,静穏,0,東北東,-2.5,92.3,0,0.5,2,10
150,2021-12-27T02:29:00,0,静穏,0,東北東,-2.6,92.1,0,0.5,2,10
151,2021-12-27T02:30:00,0,静穏,0,東北東,-2.5,92.2,0,0.5,2,10
152,2021-12-27T02:31:00,0,静穏,0,東北東,-2.4,92.5,0,0.5,2,10
153,2021-12-27T02:32:00,0,静穏,0,西南西,-2.6,92.2,0,0.5,2,10
154,2021-12-27T02:33:00,0,静穏,0,西南西,-2.7,91.6,0,0.5,2,10
155,2021-12-27T02:34:00,0,静穏,0,西南西,-2.6,91.4,0,0.5,2,10
156,2021-12-27T02:35:00,0,静穏,0,西南西,-2.6,91.8,0,0.5,2,10
157,2021-12-27T02:36:00,0,静穏,0,西南西,-2.6,91.9,0,0.5,2,10
158,2021-12-27T02:37:00,0,静穏,0,西南西,-2.6,91.9,0,0.5,2,10
159,2021-12-27T02:38:00,0,静穏,0,西南西,-2.6,91.9,0,0.5,2,10
160,2021-12-27T02:39:00,0,静穏,0,西南西,-2.6,91.8,0,0.5,2,10
161,2021-12-27T02:40:00,0,静穏,0,西南西,-2.6,92.1,0,0.5,2,10
162,2021-12-27T02:41:00,0,静穏,0,西南西,-2.5,92.2,0,0.5,2,10
163,2021-12-27T02:42:00,0,静穏,0,南西,-2.5,92.3,0,0.5,2,10
164,2021-12-27T02:43:00,0,静穏,0,南西,-2.4,92.4,0,0.5,2,10
165,2021-12-27T02:44:00,0,静穏,0,南西,-2.4,92.6,0,0,2,10
166,2021-12-27T02:45:00,0,静穏,0,南西,-2.2,92.7,0,0,2,10
167,2021-12-27T02:46:00,0,静穏,0,南西,-2.2,93,0,0,2,10
168,2021-12-27T02:47:00,0,静穏,0,南西,-2.3,92.7,0,0,2,10
169,2021-12-27T02:48:00,0,静穏,0,南西,-2.3,92.5,0,0,2,10
170,2021-12-27T02:49:00,0,静穏,0,南西,-2.3,92.3,0,0,2,10
171,2021-12-27T02:50:00,0,静穏,0,南西,-2.2,92.4,0,0,2,10
172,2021-12-27T02:51:00,0,静穏,0,南西,-2.1,92.8,0,0,2,10
173,2021-12-27T02:52:00,0,静穏,0,南,-1.9,93.3,0,0,2,10
174,2021-12-27T02:53:00,0,静穏,0,南,-1.9,93.5,0,0,2,10
175,2021-12-27T02:54:00,0,静穏,0,南,-2,93.2,0,0,2,10
176,2021-12-27T02:55:00,0,静穏,0,南,-1.9,93.1,0,0,2,10
177,2021-12-27T02:56:00,0,静穏,0,南,-1.8,93,0,0,2,10
178,2021-12-27T02:57:00,0,静穏,0,南,-1.8,93.2,0,0,2,10
179,2021-12-27T02:58:00,0,静穏,0,南,-1.8,93.1,0,0,2,10
180,2021-12-27T02:59:00,0,静穏,0,南,-1.7,93,0,0,2,10
181,2021-12-27T03:00:00,0,静穏,0,南,-1.6,93.2,0,0,2,10
182,2021-12-27T03:01:00,0,静穏,0,南,-1.6,93.4,0,0,2,10
183,2021-12-27T03:02:00,0,静穏,0,南南西,-1.6,93.2,0,0,2,10
184,2021-12-27T03:03:00,0,静穏,0,南南西,-1.5,93.3,0,0,2,10
185,2021-12-27T03:04:00,0,静穏,0,南南西,-1.5,93.1,0,0,2,10
186,2021-12-27T03:05:00,0,静穏,0,南南西,-1.6,92.9,0,0,2,10
187,2021-12-27T03:06:00,0,静穏,0,南南西,-1.6,92.6,0,0,2,10
188,2021-12-27T03:07:00,0,静穏,0,南南西,-1.6,92.3,0,0,2,10
189,2021-12-27T03:08:00,0,静穏,0,南南西,-1.6,92.3,0,0,2,10
190,2021-12-27T03:09:00,0,静穏,0,南南西,-1.7,92.1,0,0,2,10
191,2021-12-27T03:10:00,0,静穏,0,南南西,-1.7,91.9,0,0,2,10
192,2021-12-27T03:11:00,0,静穏,0,南南西,-1.6,92,0,0,2,10
193,2021-12-27T03:12:00,0,静穏,0,南南東,-1.8,91.7,0,0,2,10
194,2021-12-27T03:13:00,0,静穏,0,南南東,-1.8,91.4,0,0,2,10
195,2021-12-27T03:14:00,0,静穏,0,南南東,-1.7,91.3,0,0,2,10
196,2021-12-27T03:15:00,0,静穏,0,南南東,-1.8,91.5,0,0,2,10
197,2021-12-27T03:16:00,0,静穏,0,南南東,-1.7,91.2,0,0,2,10
198,2021-12-27T03:17:00,0,静穏,0,南南東,-1.7,91.3,0,0,2,10
199,2021-12-27T03:18:00,0,静穏,0,南南東,-1.7,91,0,0,2,10
200,2021-12-27T03:19:00,0,静穏,0,南南東,-1.8,90.7,0,0,2,10
201,2021-12-27T03:20:00,0,静穏,0,南南東,-1.8,90.1,0,0,2,10
202,2021-12-27T03:21:00,0,静穏,0,南南東,-1.9,90.1,0,0,2,10
203,2021-12-27T03:22:00,0,静穏,0,南西,-2.2,88.9,0,0,2,10
204,2021-12-27T03:23:00,0,静穏,0,南西,-2.4,87.9,0,0,2,10
205,2021-12-27T03:24:00,0,静穏,0,南西,-2.5,88.3,0,0,2,10
206,2021-12-27T03:25:00,0,静穏,0,南西,-2.5,88.5,0,0,2,10
207,2021-12-27T03:26:00,0,静穏,0,南西,-2.5,88.6,0,0,2,10
208,2021-12-27T03:27:00,0,静穏,0,南西,-2.4,89.1,0,0,2,10
209,2021-12-27T03:28:00,0,静穏,0,南西,-2.3,89.6,0,0,2,10
210,2021-12-27T03:29:00,0,静穏,0,南西,-2.1,90.2,0,0,2,10
211,2021-12-27T03:30:00,0,静穏,0,南西,-2,90.6,0,0,2,10
212,2021-12-27T03:31:00,0,静穏,0,南西,-2,90.6,0,0,2,10
213,2021-12-27T03:32:00,0,静穏,0,西南西,-2,90.5,0,0,2,10
214,2021-12-27T03:33:00,0,静穏,0,西南西,-2,90.2,0,0,2,10
215,2021-12-27T03:34:00,0,静穏,0,西南西,-2,90,0,0,2,10
216,2021-12-27T03:35:00,0,静穏,0,西南西,-1.9,90.3,0,0,2,10
217,2021-12-27T03:36:00,0,静穏,0,西南西,-1.8,90.6,0,0,2,10
218,2021-12-27T03:37:00,0,静穏,0,西南西,-1.9,90.8,0,0,2,10
219,2021-12-27T03:38:00,0,静穏,0,西南西,-1.9,90.4,0,0,2,10
220,2021-12-27T03:39:00,0,静穏,0,西南西,-1.8,90.6,0,0,2,10
221,2021-12-27T03:40:00,0,静穏,0,西南西,-1.8,90.7,0,0,2,10
222,2021-12-27T03:41:00,0,静穏,0,西南西,-1.8,91.1,0,0,2,10
223,2021-12-27T03:42:00,0,静穏,0,南,-1.8,90.9,0,0,2,10
224,2021-12-27T03:43:00,0,静穏,0,南,-1.8,90.9,0,0,2,10
225,2021-12-27T03:44:00,0,静穏,0,南,-1.7,91,0,0,2,10
226,2021-12-27T03:45:00,0,静穏,0,南,-1.8,90.9,0,0,2,10
227,2021-12-27T03:46:00,0,静穏,0,南,-1.8,90.8,0,0,2,10
228,2021-12-27T03:47:00,0,静穏,0,南,-1.8,90.6,0,0,2,10
229,2021-12-27T03:48:00,0,静穏,0,南,-1.7,90.9,0,0,2,10
230,2021-12-27T03:49:00,0,静穏,0,南,-1.7,91.1,0,0,2,10
231,2021-12-27T03:50:00,0,静穏,0,南,-1.8,90.9,0,0,2,10
232,2021-12-27T03:51:00,0,静穏,0,南,-1.8,90.7,0,0,2,10
233,2021-12-27T03:52:00,0,静穏,0,南南西,-1.8,90.6,0,0,2,10
234,2021-12-27T03:53:00,0,静穏,0,南南西,-1.8,90.8,0,0,2,10
235,2021-12-27T03:54:00,0,静穏,0,南南西,-1.8,90.9,0,0,2,10
236,2021-12-27T03:55:00,0,静穏,0,南南西,-1.8,90.8,0,0,2,10
237,2021-12-27T03:56:00,0,静穏,0,南南西,-1.7,91,0,0,2,10
238,2021-12-27T03:57:00,0,静穏,0,南南西,-1.8,91,0,0,2,10
239,2021-12-27T03:58:00,0,静穏,0,南南西,-1.7,90.9,0,0,2,10
240,2021-12-27T03:59:00,0,静穏,0,南南西,-1.7,90.9,0.5,0.5,2.5,10.5
241,2021-12-27T04:00:00,0,静穏,0,南南西,-1.7,90.7,0.5,0.5,2.5,10.5
242,2021-12-27T04:01:00,0,静穏,0,南南西,-1.7,90.5,0.5,0.5,2.5,10.5
243,2021-12-27T04:02:00,0,静穏,0,南南西,-1.7,90.5,0.5,0.5,2.5,10.5
244,2021-12-27T04:03:00,0,静穏,0,南南西,-1.7,90.1,0.5,0.5,2.5,10.5
245,2021-12-27T04:04:00,0,静穏,0,南南西,-1.7,90.2,0.5,0.5,2.5,10.5
246,2021-12-27T04:05:00,0,静穏,0,南南西,-1.7,90,0.5,0.5,2.5,10.5
247,2021-12-27T04:06:00,0,静穏,0.1,南,-1.8,89.5,0.5,0.5,2.5,10.5
248,2021-12-27T04:07:00,0,静穏,0.1,南,-1.8,89.3,0.5,0.5,2.5,10.5
249,2021-12-27T04:08:00,0,静穏,0.1,南,-1.8,89.1,0.5,0.5,2.5,10.5
250,2021-12-27T04:09:00,0,静穏,0.1,南,-1.7,89.4,0,0.5,2.5,10.5
251,2021-12-27T04:10:00,0,静穏,0.1,南,-1.7,89.5,0,0.5,2.5,10.5
252,2021-12-27T04:11:00,0,静穏,0.1,南,-1.7,89.2,0,0.5,2.5,10.5
253,2021-12-27T04:12:00,0,静穏,0.1,南,-1.7,88.8,0,0.5,2.5,10.5
254,2021-12-27T04:13:00,0,静穏,0.1,南,-1.7,88.6,0,0.5,2.5,10.5
255,2021-12-27T04:14:00,0,静穏,0.1,南,-1.7,88.6,0,0.5,2.5,10.5
256,2021-12-27T04:15:00,0,静穏,0.1,南,-1.7,88.5,0,0.5,2.5,10.5
257,2021-12-27T04:16:00,0,静穏,0,南南東,-1.8,87.8,0,0.5,2.5,10.5
258,2021-12-27T04:17:00,0,静穏,0,南南東,-1.6,87.6,0,0.5,2.5,10.5
259,2021-12-27T04:18:00,0,静穏,0,南南東,-1.7,87.7,0,0.5,2.5,10.5
260,2021-12-27T04:19:00,0,静穏,0,南南東,-1.7,87.2,0,0.5,2.5,10.5
261,2021-12-27T04:20:00,0,静穏,0,南南東,-1.7,87,0,0.5,2.5,10.5
262,2021-12-27T04:21:00,0,静穏,0,南南東,-1.7,86.5,0,0.5,2.5,10.5
263,2021-12-27T04:22:00,0,静穏,0,南南東,-1.8,85.8,0,0.5,2.5,10.5
264,2021-12-27T04:23:00,0,静穏,0,南南東,-1.8,85.5,0,0.5,2.5,10.5
265,2021-12-27T04:24:00,0,静穏,0,南南東,-1.8,85.4,0,0.5,2.5,10.5
266,2021-12-27T04:25:00,0,静穏,0,南南東,-1.8,85.8,0,0.5,2.5,10.5
267,2021-12-27T04:26:00,0,静穏,0,南,-1.8,85.6,0,0.5,2.5,10.5
268,2021-12-27T04:27:00,0,静穏,0,南,-1.8,85.2,0,0.5,2.5,10.5
269,2021-12-27T04:28:00,0,静穏,0,南,-1.9,84.7,0,0.5,2.5,10.5
270,2021-12-27T04:29:00,0,静穏,0,南,-1.9,84.7,0,0.5,2.5,10.5
271,2021-12-27T04:30:00,0,静穏,0,南,-1.8,85,0,0.5,2.5,10.5
272,2021-12-27T04:31:00,0,静穏,0,南,-1.8,85,0,0.5,2.5,10.5
273,2021-12-27T04:32:00,0,静穏,0,南,-1.8,84.8,0,0.5,2.5,10.5
274,2021-12-27T04:33:00,0,静穏,0,南,-1.8,84.8,0,0.5,2.5,10.5
275,2021-12-27T04:34:00,0,静穏,0,南,-1.8,84.4,0,0.5,2.5,10.5
276,2021-12-27T04:35:00,0,静穏,0,南,-1.8,84.2,0,0.5,2.5,10.5
277,2021-12-27T04:36:00,0,静穏,0,南南東,-1.8,84.2,0,0.5,2.5,10.5
278,2021-12-27T04:37:00,0,静穏,0,南南東,-1.8,84.3,0,0.5,2.5,10.5
279,2021-12-27T04:38:00,0,静穏,0,南南東,-1.8,84.1,0,0.5,2.5,10.5
280,2021-12-27T04:39:00,0,静穏,0,南南東,-1.8,83.9,0,0.5,2.5,10.5
281,2021-12-27T04:40:00,0,静穏,0,南南東,-1.7,83.9,0,0.5,2.5,10.5
282,2021-12-27T04:41:00,0,静穏,0,南南東,-1.8,83.8,0,0.5,2.5,10.5
283,2021-12-27T04:42:00,0,静穏,0,南南東,-1.8,83.3,0,0.5,2.5,10.5
284,2021-12-27T04:43:00,0,静穏,0,南南東,-1.9,82.9,0,0.5,2.5,10.5
285,2021-12-27T04:44:00,0,静穏,0,南南東,-1.9,82.8,0,0.5,2.5,10.5
286,2021-12-27T04:45:00,0,静穏,0,南南東,-2,82.5,0,0.5,2.5,10.5
287,2021-12-27T04:46:00,0,静穏,0,南西,-2,82.5,0,0.5,2.5,10.5
288,2021-12-27T04:47:00,0,静穏,0,南西,-1.9,82.9,0,0.5,2.5,10.5
289,2021-12-27T04:48:00,0,静穏,0,南西,-1.9,83,0,0.5,2.5,10.5
290,2021-12-27T04:49:00,0,静穏,0,南西,-1.8,83.5,0,0.5,2.5,10.5
291,2021-12-27T04:50:00,0,静穏,0,南西,-1.7,83.7,0,0.5,2.5,10.5
292,2021-12-27T04:51:00,0,静穏,0,南西,-1.9,83,0,0.5,2.5,10.5
293,2021-12-27T04:52:00,0,静穏,0,南西,-2,82.5,0,0.5,2.5,10.5
294,2021-12-27T04:53:00,0,静穏,0,南西,-1.9,82.5,0,0.5,2.5,10.5
295,2021-12-27T04:54:00,0,静穏,0,南西,-2,82.3,0,0.5,2.5,10.5
296,2021-12-27T04:55:00,0,静穏,0,南西,-1.9,82.6,0,0.5,2.5,10.5
297,2021-12-27T04:56:00,0,静穏,0,南,-1.9,83,0,0.5,2.5,10.5
298,2021-12-27T04:57:00,0,静穏,0,南,-1.9,83.1,0,0.5,2.5,10.5
299,2021-12-27T04:58:00,0,静穏,0,南,-1.8,83.1,0,0.5,2.5,10.5
300,2021-12-27T04:59:00,0,静穏,0,南,-1.8,83.1,0,0,2.5,10.5
301,2021-12-27T05:00:00,0,静穏,0,南,-1.8,82.7,0,0,2.5,10.5
302,2021-12-27T05:01:00,0,静穏,0,南,-1.9,82.5,0,0,2.5,10.5
303,2021-12-27T05:02:00,0,静穏,0,南,-1.8,82.4,0,0,2.5,10.5
304,2021-12-27T05:03:00,0,静穏,0,南,-1.9,82.5,0,0,2.5,10.5
305,2021-12-27T05:04:00,0,静穏,0,南,-1.9,82.5,0,0,2.5,10.5
306,2021-12-27T05:05:00,0,静穏,0,南,-1.8,82.6,0,0,2.5,10.5
307,2021-12-27T05:06:00,0,静穏,0,南西,-1.9,82.7,0,0,2.5,10.5
308,2021-12-27T05:07:00,0,静穏,0,南西,-1.9,82.6,0,0,2.5,10.5
309,2021-12-27T05:08:00,0,静穏,0,南西,-2,82.5,0,0,2.5,10.5
310,2021-12-27T05:09:00,0,静穏,0,南西,-2,82.5,0,0,2.5,10.5
311,2021-12-27T05:10:00,0,静穏,0,南西,-2,82.7,0,0,2.5,10.5
312,2021-12-27T05:11:00,0,静穏,0,南西,-2,82.5,0,0,2.5,10.5
313,2021-12-27T05:12:00,0,静穏,0,南西,-2,82.5,0,0,2.5,10.5
314,2021-12-27T05:13:00,0,静穏,0,南西,-2.1,82.4,0,0,2.5,10.5
315,2021-12-27T05:14:00,0,静穏,0,南西,-2.1,82.3,0,0,2.5,10.5
316,2021-12-27T05:15:00,0,静穏,0,南西,-2,82.4,0,0,2.5,10.5
317,2021-12-27T05:16:00,0,静穏,0,南西,-2,82.9,0,0,2.5,10.5
318,2021-12-27T05:17:00,0,静穏,0,南西,-2,82.8,0,0,2.5,10.5
319,2021-12-27T05:18:00,0,静穏,0,南西,-2,82.6,0,0,2.5,10.5
320,2021-12-27T05:19:00,0,静穏,0,南西,-1.9,82.5,0,0,2.5,10.5
321,2021-12-27T05:20:00,0,静穏,0,南西,-1.9,82.2,0,0,2.5,10.5
322,2021-12-27T05:21:00,0,静穏,0,南西,-1.9,81.9,0,0,2.5,10.5
323,2021-12-27T05:22:00,0,静穏,0,南西,-1.9,81.7,0,0,2.5,10.5
324,2021-12-27T05:23:00,0,静穏,0,南西,-1.9,81.3,0,0,2.5,10.5
325,2021-12-27T05:24:00,0,静穏,0,南西,-2,80.5,0,0,2.5,10.5
326,2021-12-27T05:25:00,0,静穏,0,南西,-2.1,80,0,0,2.5,10.5
327,2021-12-27T05:26:00,0,静穏,0,南南西,-2.1,79.7,0,0,2.5,10.5
328,2021-12-27T05:27:00,0,静穏,0,南南西,-2.1,80.1,0,0,2.5,10.5
329,2021-12-27T05:28:00,0,静穏,0,南南西,-2.1,80.1,0,0,2.5,10.5
330,2021-12-27T05:29:00,0,静穏,0,南南西,-2.1,80.4,0,0,2.5,10.5
331,2021-12-27T05:30:00,0,静穏,0,南南西,-2.2,80.3,0,0,2.5,10.5
332,2021-12-27T05:31:00,0,静穏,0,南南西,-2.2,80.1,0,0,2.5,10.5
333,2021-12-27T05:32:00,0,静穏,0,南南西,-2.3,79.7,0,0,2.5,10.5
334,2021-12-27T05:33:00,0,静穏,0,南南西,-2.3,80,0,0,2.5,10.5
335,2021-12-27T05:34:00,0,静穏,0,南南西,-2.4,80.3,0,0,2.5,10.5
336,2021-12-27T05:35:00,0,静穏,0,南南西,-2.5,80,0,0,2.5,10.5
337,2021-12-27T05:36:00,0,静穏,0,南西,-2.4,80.3,0,0,2.5,10.5
338,2021-12-27T05:37:00,0,静穏,0,南西,-2.5,80.4,0,0,2.5,10.5
339,2021-12-27T05:38:00,0,静穏,0,南西,-2.5,80.7,0,0,2.5,10.5
340,2021-12-27T05:39:00,0,静穏,0,南西,-2.6,80.7,0,0,2.5,10.5
341,2021-12-27T05:40:00,0,静穏,0,南西,-2.6,80.7,0,0,2.5,10.5
342,2021-12-27T05:41:00,0,静穏,0,南西,-2.6,81.1,0,0,2.5,10.5
343,2021-12-27T05:42:00,0,静穏,0,南西,-2.7,81.3,0,0,2.5,10.5
344,2021-12-27T05:43:00,0,静穏,0,南西,-2.6,81.5,0,0,2.5,10.5
345,2021-12-27T05:44:00,0,静穏,0,南西,-2.5,82.4,0,0,2.5,10.5
346,2021-12-27T05:45:00,0,静穏,0,南西,-2.5,82.5,0,0,2.5,10.5
347,2021-12-27T05:46:00,0,静穏,0,南西,-2.5,82.6,0,0,2.5,10.5
348,2021-12-27T05:47:00,0,静穏,0,南西,-2.5,82.3,0,0,2.5,10.5
349,2021-12-27T05:48:00,0,静穏,0,南西,-2.5,82.3,0,0,2.5,10.5
350,2021-12-27T05:49:00,0,静穏,0,南西,-2.4,82.6,0,0,2.5,10.5
351,2021-12-27T05:50:00,0,静穏,0,南西,-2.4,82.3,0,0,2.5,10.5
352,2021-12-27T05:51:00,0,静穏,0,南西,-2.5,81.8,0,0,2.5,10.5
353,2021-12-27T05:52:00,0,静穏,0,南西,-2.5,81.9,0,0,2.5,10.5
354,2021-12-27T05:53:00,0,静穏,0,南西,-2.4,81.9,0,0,2.5,10.5
355,2021-12-27T05:54:00,0,静穏,0,南西,-2.4,81.8,0,0,2.5,10.5
356,2021-12-27T05:55:00,0,静穏,0,南西,-2.4,81.7,0,0,2.5,10.5
357,2021-12-27T05:56:00,0,静穏,0,南南西,-2.3,81.6,0,0,2.5,10.5
358,2021-12-27T05:57:00,0,静穏,0,南南西,-2.4,81.2,0,0,2.5,10.5
359,2021-12-27T05:58:00,0,静穏,0,南南西,-2.3,81.1,0,0,2.5,10.5
360,2021-12-27T05:59:00,0,静穏,0,南南西,-2.3,81,0,0,2.5,10.5
361,2021-12-27T06:00:00,0,静穏,0,南南西,-2.4,80.5,0,0,2.5,10.5
362,2021-12-27T06:01:00,0,静穏,0,南南西,-2.4,80.3,0,0,2.5,10.5
363,2021-12-27T06:02:00,0,静穏,0,南南西,-2.5,79.9,0,0,2.5,10.5
364,2021-12-27T06:03:00,0,静穏,0,南南西,-2.5,79.9,0,0,2.5,10.5
365,2021-12-27T06:04:00,0,静穏,0,南南西,-2.6,80,0,0,2.5,10.5
366,2021-12-27T06:05:00,0,静穏,0,南南西,-2.5,80.1,0,0,2.5,10.5
367,2021-12-27T06:06:00,0,静穏,0,南西,-2.7,80.1,0,0,2.5,10.5
368,2021-12-27T06:07:00,0,静穏,0,南西,-2.8,79.5,0,0,2.5,10.5
369,2021-12-27T06:08:00,0,静穏,0,南西,-2.9,79.3,0,0,2.5,10.5
370,2021-12-27T06:09:00,0,静穏,0,南西,-2.9,79.8,0,0,2.5,10.5
371,2021-12-27T06:10:00,0,静穏,0,南西,-2.7,81.1,0,0,2.5,10.5
372,2021-12-27T06:11:00,0,静穏,0,南西,-2.7,80.7,0,0,2.5,10.5
373,2021-12-27T06:12:00,0,静穏,0,南西,-2.8,80.3,0,0,2.5,10.5
374,2021-12-27T06:13:00,0,静穏,0,南西,-2.8,79.9,0,0,2.5,10.5
375,2021-12-27T06:14:00,0,静穏,0,南西,-2.8,79.8,0,0,2.5,10.5
376,2021-12-27T06:15:00,0,静穏,0,南西,-2.6,80,0,0,2.5,10.5
377,2021-12-27T06:16:00,0,静穏,0,南西,-2.5,80.8,0,0,2.5,10.5
378,2021-12-27T06:17:00,0,静穏,0,南西,-2.5,80.6,0,0,2.5,10.5
379,2021-12-27T06:18:00,0,静穏,0,南西,-2.5,80,0,0,2.5,10.5
380,2021-12-27T06:19:00,0,静穏,0,南西,-2.6,79.8,0,0,2.5,10.5
381,2021-12-27T06:20:00,0,静穏,0,南西,-2.7,79.6,0,0,2.5,10.5
382,2021-12-27T06:21:00,0,静穏,0,南西,-2.7,79.4,0,0,2.5,10.5
383,2021-12-27T06:22:00,0,静穏,0,南西,-2.8,79.9,0,0,2.5,10.5
384,2021-12-27T06:23:00,0,静穏,0,南西,-2.8,79.7,0,0,2.5,10.5
385,2021-12-27T06:24:00,0,静穏,0,南西,-2.9,79.8,0,0,2.5,10.5
386,2021-12-27T06:25:00,0,静穏,0,南西,-3,79.9,0,0,2.5,10.5
387,2021-12-27T06:26:00,0,静穏,0,東,-3.3,79.1,0,0,2.5,10.5
388,2021-12-27T06:27:00,0,静穏,0,東,-3.3,79.6,0,0,2.5,10.5
389,2021-12-27T06:28:00,0,静穏,0,東,-3.2,80.4,0,0,2.5,10.5
390,2021-12-27T06:29:00,0,静穏,0,東,-3.2,81.1,0,0,2.5,10.5
391,2021-12-27T06:30:00,0,静穏,0,東,-3.1,81.4,0,0,2.5,10.5
392,2021-12-27T06:31:00,0,静穏,0,東,-2.9,82.3,0,0,2.5,10.5
393,2021-12-27T06:32:00,0,静穏,0,東,-3,82.1,0,0,2.5,10.5
394,2021-12-27T06:33:00,0,静穏,0,東,-3.2,81.4,0,0,2.5,10.5
395,2021-12-27T06:34:00,0,静穏,0,東,-3.3,80.6,0,0,2.5,10.5
396,2021-12-27T06:35:00,0,静穏,0,東,-3.4,80.6,0,0,2.5,10.5
397,2021-12-27T06:36:00,0,静穏,0,南東,-3.4,81,0,0,2.5,10.5
398,2021-12-27T06:37:00,0,静穏,0,南東,-3.3,81.4,0,0,2.5,10.5
399,2021-12-27T06:38:00,0,静穏,0,南東,-3.5,81.5,0,0,2.5,10.5
400,2021-12-27T06:39:00,0,静穏,0,南東,-3.7,81,0,0,2.5,10.5
401,2021-12-27T06:40:00,0,静穏,0,南東,-3.8,81.2,0,0,2.5,10.5
402,2021-12-27T06:41:00,0,静穏,0,南東,-3.7,81.7,0,0,2.5,10.5
403,2021-12-27T06:42:00,0,静穏,0,南東,-3.8,82.5,0,0,2.5,10.5
404,2021-12-27T06:43:00,0,静穏,0,南東,-3.9,82.5,0,0,2.5,10.5
405,2021-12-27T06:44:00,0,静穏,0,南東,-3.9,82.7,0,0,2.5,10.5
406,2021-12-27T06:45:00,0,静穏,0,南東,-4,82.9,0,0,2.5,10.5
407,2021-12-27T06:46:00,0,静穏,0,南南東,-4,83.2,0,0,2.5,10.5
408,2021-12-27T06:47:00,0,静穏,0,南南東,-4,83.7,0,0,2.5,10.5
409,2021-12-27T06:48:00,0,静穏,0,南南東,-4.1,83.5,0,0,2.5,10.5
410,2021-12-27T06:49:00,0,静穏,0,南南東,-4,83.9,0,0,2.5,10.5
411,2021-12-27T06:50:00,0,静穏,0,南南東,-4.1,84.5,0,0,2.5,10.5
412,2021-12-27T06:51:00,0,静穏,0,南南東,-4.1,84.5,0,0,2.5,10.5
413,2021-12-27T06:52:00,0,静穏,0,南南東,-4,85.1,0,0,2.5,10.5
414,2021-12-27T06:53:00,0,静穏,0,南南東,-4.1,85.3,0,0,2.5,10.5
415,2021-12-27T06:54:00,0,静穏,0,南南東,-4.1,85.1,0,0,2.5,10.5
416,2021-12-27T06:55:00,0,静穏,0,南南東,-4.1,85.3,0,0,2.5,10.5
417,2021-12-27T06:56:00,0,静穏,0,南南西,-3.9,85.9,0,0,2.5,10.5
418,2021-12-27T06:57:00,0,静穏,0,南南西,-3.7,86.9,0,0,2.5,10.5
419,2021-12-27T06:58:00,0,静穏,0,南南西,-3.6,87.6,0,0,2.5,10.5
420,2021-12-27T06:59:00,0,静穏,0,南南西,-3.9,86.7,0,0,2.5,10.5
421,2021-12-27T07:00:00,0,静穏,0,南南西,-4,85.8,0,0,2.5,10.5
422,2021-12-27T07:01:00,0,静穏,0,南南西,-3.9,85.7,0,0,2.5,10.5
423,2021-12-27T07:02:00,0,静穏,0,南南西,-4,86.3,0,0,2.5,10.5
424,2021-12-27T07:03:00,0,静穏,0,南南西,-4,86.1,0,0,2.5,10.5
425,2021-12-27T07:04:00,0,静穏,0,南南西,-4,86.2,0,0,2.5,10.5
426,2021-12-27T07:05:00,0,静穏,0,南南西,-4,86.5,0,0,2.5,10.5
427,2021-12-27T07:06:00,0,静穏,0,西,-4.2,86.3,0,0,2.5,10.5